User: anonymous   Login
Location: Fisheating Creek Campgrounds
(26.9333°N, 81.3167°W)
Time: 03:28:43
(UTC-05:00)
Language:

Cosmos 2221 Rocket - Orbit

View from above orbital plane
View from above orbital plane
View from above satellite
View from above satellite

Ground track
Ground track

The orbit data is extracted from the following two-line orbital elements,

1 22237U 92080B   16340.15058822  .00000093  00000-0  96267-5 0  9997
2 22237  82.5115 298.2097 0021112 117.9236 295.4272 14.78293845294774
Epoch (UTC): 05 December 2016 03:36:50
Eccentricity: 0.0021112
inclination: 82.5115°
perigee height: 620 km
apogee height: 649 km
right ascension of ascending node: 298.2097°
argument of perigee: 117.9236°
revolutions per day: 14.78293845
mean anomaly at epoch: 295.4272°
orbit number at epoch: 29477

The dashed part of the orbit path shows where the satellite is in the earth's shadow,  

DLR